Location: Choisy
(48.7685°N, 2.4187°E)
Time: 08:33:00
(UTC+00:00)

ATLAS 3B R/B - Pass Details

Date: 30 November 2023
Orbit: 947 x 1247 km, 63.8° (Epoch: 10 February)

Event Time Altitude Azimuth Distance (km) Brightness Sun altitude
Exits shadow 05:07:02 12° 221° (SW) 2,794 4.6 -21.2°
Maximum altitude 05:13:41 86° 311° (NW) 1,151 2.7 -20.1°
Drops below altitude 10° 05:21:15 10° 41° (NE) 3,143 5.5 -18.9°
Sets 05:24:05 0° 42° (NE) 4,141 6.2 -18.4°
